IRVINE 01
1 43693U 18088D 22237.34575231 .00017105 00000-0 39985-3 0 9997
2 43693 85.0243 263.9800 0011175 191.7162 168.3833 15.41962881210829
QO-100
1 43700U 18090A 22237.36021788 .00000140 00000-0 00000-0 0 9998
2 43700 0.0207 144.7620 0001953 50.4835 293.8350 1.00272716 13721
Reaktor Hello World
1 43743U 18096AA 22237.18906141 .00005889 00000-0 17336-3 0 9994
2 43743 97.3505 316.8225 0015055 167.0091 193.1544 15.35337970208504
MinXSS-2
1 43758U 18099A 22237.47218134 .00001912 00000-0 16781-3 0 9999
2 43758 97.6204 303.7225 0015924 39.9271 320.3120 14.97685078203439
AO-95
1 43770U 18099N 22237.12274064 .00001403 00000-0 12765-3 0 9992
2 43770 97.6160 301.6840 0015056 50.5865 309.6687 14.96701040203286
RANGE-B
1 43772U 18099Q 22237.35402966 .00000799 00000-0 73561-4 0 9992
2 43772 97.6289 303.7510 0014560 36.9451 323.2771 14.97408989203345
RANGE-A
1 43773U 18099R 22237.39950424 .00001188 00000-0 11013-3 0 9990
2 43773 97.6088 300.7234 0014127 38.3899 321.8325 14.96227122203306
MOVE-II
1 43780U 18099Y 22237.42016317 .00001145 00000-0 10130-3 0 9998
2 43780 97.6218 303.2733 0013996 44.7417 315.4932 14.98171702203386
SNUSat 2
1 43782U 18099AA 22237.42996739 .00000465 00000-0 45480-4 0 9996
2 43782 97.6165 302.4641 0013095 35.3001 324.9086 14.96849427203359
SnugLite
1 43784U 18099AC 22237.39040472 .00001464 00000-0 13160-3 0 9997
2 43784 97.6125 302.0568 0015392 43.1060 317.1365 14.97086506203373
ITASat 1
1 43786U 18099AE 22237.17700784 .00000778 00000-0 72771-4 0 9995
2 43786 97.6185 302.6922 0015474 42.2387 318.0024 14.96809513203332
EAGLET 1
1 43790U 18099AJ 22237.13207795 .00001220 00000-0 11098-3 0 9997
2 43790 97.6182 303.1889 0014069 47.3405 312.9000 14.96942749203064
ESEO
1 43792U 18099AL 22237.42891537 -.00000046 00000-0 92557-6 0 9992
2 43792 97.6135 302.5931 0014110 42.8493 317.3825 14.96301923203145
CSIM
1 43793U 18099AM 22237.49583746 .00000858 00000-0 75794-4 0 9992
2 43793 97.6221 304.3149 0013263 34.9428 325.2662 14.98845727203224
Astrocast 0.1
1 43798U 18099AS 22237.40989925 .00002164 00000-0 18791-3 0 9992
2 43798 97.6208 304.0290 0012498 26.5375 333.6485 14.97997219203437
JO-97
1 43803U 18099AX 22237.43798511 .00000867 00000-0 79395-4 0 9997
2 43803 97.6147 302.7231 0015246 39.9058 320.3282 14.97365506203397
Suomi 100
1 43804U 18099AY 22237.12649289 .00001499 00000-0 13408-3 0 9995
2 43804 97.6145 302.3267 0015498 42.9808 317.2622 14.97253177203356
Al Farabi 2
1 43805U 18099AZ 22237.62034013 .00001976 00000-0 17225-3 0 9995
2 43805 97.6181 303.3743 0015706 40.5269 319.7112 14.97914661203458
CHOMPTT
1 43855U 18104G 22237.59762847 .00003795 00000-0 13515-3 0 9995
2 43855 85.0379 5.0138 0014318 349.3606 10.7334 15.28481069205283
ISAT
1 43879U 18111D 22237.52492171 .00001030 00000-0 91275-4 0 9992
2 43879 97.6573 141.8809 0013595 87.8220 272.4559 14.98306702197990
UWE-4
1 43880U 18111E 22237.38781279 .00000728 00000-0 65783-4 0 9996
2 43880 97.6609 142.4900 0012921 87.6059 272.6643 14.98449626200029
Sparrow
1 43881U 18111F 22237.53132966 .00001149 00000-0 10049-3 0 9999
2 43881 97.6614 142.8841 0012836 86.5781 273.6910 14.98615221198052
Lume 1
1 43908U 18111AJ 22237.14036610 .00003993 00000-0 13335-3 0 9995
2 43908 97.1817 122.8052 0017890 182.1409 177.9759 15.31446075203904
FO-99
1 43937U 19003F 22237.36636037 .00005294 00000-0 17256-3 0 9993
2 43937 97.1266 268.0853 0017812 265.7621 94.1586 15.32078419200521
MYSat 1
1 44045U 18092F 22237.62671965 .00031938 00000-0 38229-3 0 9996
2 44045 51.6291 85.9794 0005629 0.8607 359.2395 15.60655490198654
AstroCast 0.2
1 44083U 19018F 22237.41424628 .00004046 00000-0 15058-3 0 9991
2 44083 97.3170 295.0010 0008737 235.1628 124.8790 15.28024507189011
AISTechSat 3
1 44103U 19018AB 22237.44516176 .00003932 00000-0 14429-3 0 9991
2 44103 97.3035 295.3520 0010304 246.6216 113.3941 15.28496127189186
AISat 1
1 44104U 19018AC 22237.55614683 .00003455 00000-0 96258-4 0 9997
2 44104 97.3944 320.9915 0049790 244.8634 114.7440 15.36258402190209
Prox-1
1 44339U 19036A 22237.38250157 .00001730 00000-0 34234-3 0 9999
2 44339 23.9999 118.2182 0010988 250.3355 109.5951 14.55369706168403
Oculus-ASR
1 44348U 19036K 22237.21641699 .00036760 -59025-5 30421-3 0 9998
2 44348 28.5011 75.2089 0218927 7.6848 352.7031 15.42861301175156
NO-104
1 44354U 19036R 22237.20941772 .00039990 -57554-5 31023-3 0 9991
2 44354 28.5233 59.2619 0208694 29.8854 331.3484 15.46140128175317
Move-IIb
1 44398U 19038N 22237.91130953 .00006880 00000-0 32221-3 0 9991
2 44398 97.6350 207.9633 0018813 243.9129 116.0167 15.19894514173584
SONATE
1 44400U 19038Q 22237.54832424 .00002955 00000-0 16048-3 0 9994
2 44400 97.6451 206.4052 0021345 253.6908 106.1963 15.15146825173390
BeeSat 9
1 44412U 19038AC 22237.43295291 .00003112 00000-0 15714-3 0 9995
2 44412 97.6405 207.2847 0017915 253.9577 105.9684 15.17736943173155
JAISAT-1
1 44419U 19038F 22237.39715387 .00003519 00000-0 17494-3 0 9998
2 44419 97.6408 208.1392 0016927 250.6447 109.2957 15.18209309173514
LightSail-2
1 44420U 19036AC 22237.46658338 .00036244 00000-0 38747-2 0 9992
2 44420 23.9993 36.2144 0015058 7.4937 352.5786 14.87252649167345
Taurus 1
1 44530U 19059C 22237.76860635 .00001404 00000-0 39580-3 0 9994
2 44530 98.5491 336.9638 0012082 267.6696 92.3099 14.47290181155872
Duchifat 3
1 44854U 19089C 22237.83479693 .00002269 00000-0 17843-3 0 9992
2 44854 36.9659 48.9026 0007540 53.3619 78.9164 15.01444263148364
OPS-SAT
1 44878U 19092F 22237.75477994 .00003943 00000-0 18053-3 0 9999
2 44878 97.4808 61.1603 0013595 97.8830 262.3949 15.21008892148727
TO-108
1 44881U 19093C 22237.79515793 .00000323 00000-0 47529-4 0 9998
2 44881 97.8907 316.0038 0014200 325.5989 34.4295 14.81792454145042
FloripaSat 1
1 44885U 19093G 22237.76198950 .00001224 00000-0 15576-3 0 9998
2 44885 97.8943 317.4419 0013660 331.1985 28.8467 14.83342360145128
RS-44
1 44909U 19096E 22237.53887933 .00000010 00000-0 -99309-5 0 9990
2 44909 82.5240 184.3820 0217710 157.9210 203.1448 12.79714421124342
BY70-2
1 45857U 20042B 22237.78477206 .00004208 00000-0 55609-3 0 9996
2 45857 97.9533 313.9889 0009177 243.9254 116.0927 14.80502771115717
UPMSat 2
1 46276U 20061E 22237.50280428 .00001537 00000-0 77505-4 0 9993
2 46276 97.3878 306.7543 0000488 36.9120 323.2148 15.18604394109350
AmicalSat
1 46287U 20061R 22237.46026416 .00002334 00000-0 13498-3 0 9991
2 46287 97.4424 305.5601 0003634 61.2389 298.9207 15.13234769108900
SALSAT
1 46495U 20068K 22237.45938336 .00001600 00000-0 11772-3 0 9999
2 46495 97.7315 178.8014 0017491 47.2993 312.9702 15.04743180104560
BY70-3
1 46839U 20079N 22237.75586742 .00014362 00000-0 31058-3 0 9994
2 46839 97.1929 309.0479 0006519 89.2802 8.9468 15.44568610100939
CAPE 3
1 47309U 21002A 22237.50894168 .00004903 00000-0 19851-3 0 9998
2 47309 60.6827 104.5903 0032743 25.5422 334.7275 15.25800451 88980
AO-109
1 47311U 21002C 22237.34341454 .00003245 00000-0 13403-3 0 9993
2 47311 60.6851 102.7366 0028623 26.5737 333.6811 15.26204712 88977
MiTEE 1
1 47314U 21002F 22237.28541546 .00008221 00000-0 27005-3 0 9995
2 47314 60.6815 94.2565 0025574 19.2693 340.9359 15.32086214 89137
ExoCube 2
1 47319U 21002L 22237.36212838 .00003715 00000-0 15368-3 0 9990
2 47319 60.6837 103.8898 0030180 27.6188 332.6496 15.25753535 88928
